Regional Weather Roundup
Issued by NWS

Home | Current Version | Previous Version | Graphics & Text | Print | Product List | Glossary On
Versions: 1 2 3 4 5 6 7 8 9 10 11 12 13 14 15 16 17 18 19 20 21 22 23 24 25 26 27 28 29 30 31 32 33 34 35 36 37 38 39 40 41 42 43 44 45 46 47 48 49 50
000
ASUS43 KFSD 211002
RWRSD

WEATHER ROUNDUP FOR SOUTH DAKOTA
NATIONAL WEATHER SERVICE SIOUX FALLS SD
400 AM CST SUN DEC 21 2014

NOTE: "FAIR" INDICATES FEW OR NO CLOUDS BELOW 12,000 FEET WITH NO
SIGNIFICANT WEATHER AND/OR OBSTRUCTIONS TO VISIBILITY.


SDZ001>005-009-010-012>017-211100-
NORTHWEST AND NORTH CENTRAL SOUTH DAKOTA

CITY           SKY/WX    TMP DP  RH WIND       PRES   REMARKS
BUFFALO          N/A     31  22  69 S6        29.57F WCI  25
FAITH            N/A     31  24  75 SE13      29.66F WCI  21
MOBRIDGE       CLOUDY    27  24  89 E7        29.69F WCI  19
$$

SDZ012>016-024>037-041>051-057-063-072>074-211100-
SOUTHWEST AND SOUTH CENTRAL SOUTH DAKOTA

CITY           SKY/WX    TMP DP  RH WIND       PRES   REMARKS
RAPID CTY ARPT CLEAR     22  18  85 CALM      29.66F
PIERRE         MOCLDY    22  19  89 E3        29.74F
CUSTER         CLEAR     27  23  85 W6        29.66F WCI  20
ELLSWORTH AFB  CLEAR     30  23  74 W3        29.64F
PHILIP         PTCLDY    24  21  88 E3        29.70F
PINE RIDGE     CLEAR     30  23  75 SW3       29.72F
WINNER         CLOUDY    40  26  57 S3        29.75F
$$

SDZ004>011-016>023-039-040-211100-
NORTHEAST SOUTH DAKOTA

CITY           SKY/WX    TMP DP  RH WIND       PRES   REMARKS
ABERDEEN       CLOUDY    30  28  92 S13       29.80F FOG     WCI  20
WATERTOWN      CLOUDY    29  28  96 S12       29.80F FOG     WCI  19
SISSETON         N/A     30  29  96 SW9       29.82F WCI  22
$$

SDZ017-020-022-023-036>040-048>070-211100-
SOUTHEAST SOUTH DAKOTA

CITY           SKY/WX    TMP DP  RH WIND       PRES   REMARKS
SIOUX FALLS    FOG       31  31 100 S12       29.86F VSB 1/2 WCI  22
HURON          CLOUDY    31  30  96 S9        29.81F FOG     WCI  23
MITCHELL       CLOUDY    32  31  96 S9        29.83F FOG     WCI  24
YANKTON        CLOUDY    34  30  86 S13       29.87F WCI  25
$$

ABBREVIATIONS USED IN REMARKS
   TC - TEMPERATURE IN CELSIUS
  WCI - WIND CHILL INDEX
   HX - HEAT INDEX
  VSB - VISIBILITY




USA.gov is the U.S. government's official web portal to all federal, state and local government web resources and services.